Location: East Horndon
(51.5667°N, 0.3500°E)
Time: 00:19:07
(UTC+00:00)

Timation 2 Rocket - Visible Passes

Search period start: 12 February 2026 00:00
Search period end: 22 February 2026 00:00
Orbit: 906 x 1072 km, 70.0° (Epoch: 11 February)

Date Brightness Start Highest point End Pass type
(mag) Time Alt. Az. Time Alt. Az. Time Alt. Az.
12 Feb 6.1 03:00:18 17° N 03:00:18 17° N 03:02:21 10° NNE visible
12 Feb 6.0 04:45:13 11° NNW 04:47:45 13° N 04:50:34 10° NNE visible
12 Feb 5.8 06:33:24 10° NNW 06:37:46 20° NNE 06:42:06 10° ENE visible
13 Feb 6.6 01:44:20 13° NNE 01:44:20 13° NNE 01:44:54 10° NNE visible
13 Feb 6.0 03:29:16 16° N 03:29:16 16° N 03:32:08 10° NNE visible
13 Feb 6.1 05:15:30 10° NNW 05:18:37 14° N 05:21:43 10° NE visible
14 Feb 6.3 02:13:18 15° NNE 02:13:18 15° NNE 02:14:32 10° NNE visible
14 Feb 6.0 03:58:13 13° NNW 03:59:15 14° N 04:02:14 10° NNE visible
14 Feb 6.0 05:45:32 10° NNW 05:49:25 17° NNE 05:53:15 10° ENE visible
15 Feb 6.2 02:42:15 16° N 02:42:15 16° N 02:44:14 10° NNE visible
15 Feb 6.1 04:27:17 10° NNW 04:30:08 13° N 04:32:59 10° NNE visible
15 Feb 5.7 06:15:18 10° NNW 06:20:01 23° NNE 06:24:42 10° E visible
16 Feb 6.6 01:26:16 12° NNE 01:26:16 12° NNE 01:26:43 10° NNE visible
16 Feb 6.1 03:11:11 15° N 03:11:11 15° N 03:14:06 10° NNE visible
16 Feb 6.1 04:57:35 10° NNW 05:00:59 15° NNE 05:04:21 10° NE visible
17 Feb 6.4 01:55:12 14° N 01:55:12 14° N 01:56:23 10° NNE visible
17 Feb 6.1 03:40:07 12° NNW 03:41:38 13° N 03:44:28 10° NNE visible
17 Feb 6.0 05:27:27 10° NNW 05:31:42 19° NNE 05:35:55 10° ENE visible
18 Feb 6.2 02:24:07 15° N 02:24:07 15° N 02:26:08 10° NNE visible
18 Feb 6.2 04:09:30 10° NNW 04:12:30 14° N 04:15:31 10° NE visible
18 Feb 5.6 05:57:09 10° NNW 06:02:12 27° NE 06:07:15 10° E visible
19 Feb 6.6 01:08:06 12° NNE 01:08:06 12° NNE 01:08:33 10° NNE visible
19 Feb 6.2 02:53:02 14° N 02:53:09 14° N 02:56:10 10° NNE visible
19 Feb 6.1 04:39:34 10° NNW 04:43:19 17° NNE 04:47:02 10° ENE visible
19 Feb 5.0 06:26:47 10° NNW 06:32:28 42° NE 06:38:08 10° ESE visible
20 Feb 6.4 01:37:01 14° N 01:37:01 14° N 01:38:14 10° NNE visible
20 Feb 6.2 03:21:55 11° NNW 03:24:01 13° N 03:26:49 10° NNE visible
20 Feb 5.9 05:09:20 10° NNW 05:13:56 22° NNE 05:18:32 10° E visible
21 Feb 6.3 02:05:53 14° N 02:05:53 14° N 02:08:05 10° NNE visible
21 Feb 6.3 03:51:36 10° NNW 03:54:53 15° NNE 03:58:08 10° NE visible
21 Feb 5.4 05:38:59 10° NNW 05:44:21 32° NE 05:49:42 10° ESE visible
